Time,TemperatureF,DewpointF,PressureIn,WindDirection,WindDirectionDegrees,WindSpeedMPH,WindSpeedGustMPH,Humidity,HourlyPrecipIn,Conditions,Clouds,dailyrainin,SoftwareType,DateUTC
2013-05-16 00:09:00,55.3,48.0,29.71,South,190,0.0,4.0,77,0.00,,,0.00,weatherlink.com 1.10,2013-05-16 04:09:00,
2013-05-16 00:24:00,55.1,48.0,29.71,South,170,0.0,2.0,77,0.00,,,0.00,weatherlink.com 1.10,2013-05-16 04:24:00,
2013-05-16 00:39:00,54.8,48.0,29.72,South,172,0.0,0.0,77,0.00,,,0.00,weatherlink.com 1.10,2013-05-16 04:39:00,
2013-05-16 00:54:00,54.3,48.0,29.72,NNW,335,0.0,3.0,79,0.00,,,0.00,weatherlink.com 1.10,2013-05-16 04:54:00,
2013-05-16 01:09:00,53.9,48.0,29.73,South,187,0.0,0.0,79,0.00,,,0.00,weatherlink.com 1.10,2013-05-16 05:09:00,
2013-05-16 01:24:00,53.3,48.0,29.73,SSW,195,0.0,0.0,81,0.00,,,0.00,weatherlink.com 1.10,2013-05-16 05:24:00,
2013-05-16 01:40:00,53.2,48.0,29.73,SSW,208,0.0,1.0,82,0.00,,,0.00,weatherlink.com 1.10,2013-05-16 05:40:00,
2013-05-16 01:55:00,53.1,48.0,29.73,SSW,208,0.0,1.0,82,0.00,,,0.00,weatherlink.com 1.10,2013-05-16 05:55:00,
2013-05-16 02:10:00,52.4,47.0,29.73,SSW,208,0.0,0.0,83,0.00,,,0.00,weatherlink.com 1.10,2013-05-16 06:10:00,
2013-05-16 02:25:00,52.6,48.0,29.73,SSE,163,1.0,3.0,84,0.00,,,0.00,weatherlink.com 1.10,2013-05-16 06:25:00,
2013-05-16 02:40:00,52.8,48.0,29.73,SSW,212,3.0,4.0,83,0.00,,,0.00,weatherlink.com 1.10,2013-05-16 06:40:00,
2013-05-16 02:55:00,52.7,48.0,29.73,SSW,201,1.0,3.0,83,0.00,,,0.00,weatherlink.com 1.10,2013-05-16 06:55:00,
2013-05-16 03:10:00,52.7,47.0,29.73,SSW,207,0.0,4.0,82,0.00,,,0.00,weatherlink.com 1.10,2013-05-16 07:10:00,
2013-05-16 03:25:00,52.4,47.0,29.73,SSW,198,0.0,2.0,82,0.00,,,0.00,weatherlink.com 1.10,2013-05-16 07:25:00,
2013-05-16 03:40:00,51.8,47.0,29.73,SSW,198,0.0,1.0,83,0.00,,,0.00,weatherlink.com 1.10,2013-05-16 07:40:00,
2013-05-16 03:55:00,51.3,46.0,29.73,SSW,198,0.0,1.0,83,0.00,,,0.00,weatherlink.com 1.10,2013-05-16 07:55:00,
2013-05-16 04:10:00,50.8,47.0,29.73,SSW,205,2.0,2.0,85,0.00,,,0.00,weatherlink.com 1.10,2013-05-16 08:10:00,
2013-05-16 04:25:00,51.4,47.0,29.73,SSW,204,2.0,4.0,84,0.00,,,0.00,weatherlink.com 1.10,2013-05-16 08:25:00,
2013-05-16 04:40:00,51.8,47.0,29.74,South,183,3.0,5.0,84,0.00,,,0.00,weatherlink.com 1.10,2013-05-16 08:40:00,
2013-05-16 04:55:00,51.8,47.0,29.74,SW,222,3.0,4.0,83,0.00,,,0.00,weatherlink.com 1.10,2013-05-16 08:55:00,
2013-05-16 05:10:00,51.3,47.0,29.74,SW,222,0.0,4.0,84,0.00,,,0.00,weatherlink.com 1.10,2013-05-16 09:10:00,
2013-05-16 05:25:00,50.7,46.0,29.75,South,187,2.0,4.0,85,0.00,,,0.00,weatherlink.com 1.10,2013-05-16 09:25:00,
2013-05-16 05:40:00,50.0,46.0,29.75,SSW,198,3.0,4.0,86,0.00,,,0.00,weatherlink.com 1.10,2013-05-16 09:40:00,
2013-05-16 05:55:00,49.6,46.0,29.75,SSE,156,2.0,4.0,87,0.00,,,0.00,weatherlink.com 1.10,2013-05-16 09:55:00,
2013-05-16 06:10:00,49.4,46.0,29.76,SSW,208,3.0,5.0,88,0.00,,,0.00,weatherlink.com 1.10,2013-05-16 10:10:00,
2013-05-16 06:25:00,49.7,46.0,29.76,South,172,1.0,5.0,88,0.00,,,0.00,weatherlink.com 1.10,2013-05-16 10:25:00,
2013-05-16 06:40:00,50.5,47.0,29.76,SSW,203,1.0,6.0,87,0.00,,,0.00,weatherlink.com 1.10,2013-05-16 10:40:00,
2013-05-16 06:55:00,51.4,47.0,29.77,SSW,208,3.0,5.0,86,0.00,,,0.00,weatherlink.com 1.10,2013-05-16 10:55:00,
2013-05-16 07:10:00,52.6,48.0,29.77,SSW,212,5.0,7.0,84,0.00,,,0.00,weatherlink.com 1.10,2013-05-16 11:10:00,
2013-05-16 07:25:00,53.7,48.0,29.77,SW,226,2.0,7.0,82,0.00,,,0.00,weatherlink.com 1.10,2013-05-16 11:25:00,
2013-05-16 07:40:00,55.4,49.0,29.77,SSW,207,2.0,8.0,79,0.00,,,0.00,weatherlink.com 1.10,2013-05-16 11:40:00,
2013-05-16 07:55:00,56.9,49.0,29.77,SSW,210,3.0,8.0,75,0.00,,,0.00,weatherlink.com 1.10,2013-05-16 11:55:00,
2013-05-16 08:10:00,58.8,49.0,29.77,South,190,3.0,8.0,71,0.00,,,0.00,weatherlink.com 1.10,2013-05-16 12:10:00,
2013-05-16 08:25:00,60.0,49.0,29.77,West,260,5.0,9.0,67,0.00,,,0.00,weatherlink.com 1.10,2013-05-16 12:25:00,
2013-05-16 08:40:00,61.8,49.0,29.77,SW,221,4.0,8.0,64,0.00,,,0.00,weatherlink.com 1.10,2013-05-16 12:40:00,
2013-05-16 08:56:00,62.8,48.0,29.78,South,190,6.0,12.0,59,0.00,,,0.00,weatherlink.com 1.10,2013-05-16 12:56:00,
2013-05-16 09:11:00,63.9,47.0,29.78,WSW,245,5.0,11.0,54,0.00,,,0.00,weatherlink.com 1.10,2013-05-16 13:11:00,
2013-05-16 09:26:00,64.8,48.0,29.78,WSW,242,6.0,14.0,54,0.00,,,0.00,weatherlink.com 1.10,2013-05-16 13:26:00,
2013-05-16 09:41:00,65.2,47.0,29.79,SSW,203,8.0,16.0,52,0.00,,,0.00,weatherlink.com 1.10,2013-05-16 13:41:00,
2013-05-16 09:56:00,66.2,47.0,29.78,SW,235,12.0,14.0,50,0.00,,,0.00,weatherlink.com 1.10,2013-05-16 13:56:00,
2013-05-16 10:11:00,67.1,47.0,29.78,WSW,239,7.0,14.0,48,0.00,,,0.00,weatherlink.com 1.10,2013-05-16 14:11:00,
2013-05-16 10:26:00,68.1,45.0,29.79,SW,226,15.0,17.0,43,0.00,,,0.00,weatherlink.com 1.10,2013-05-16 14:26:00,
2013-05-16 10:41:00,69.0,45.0,29.78,West,270,5.0,15.0,43,0.00,,,0.00,weatherlink.com 1.10,2013-05-16 14:41:00,
2013-05-16 10:56:00,69.9,45.0,29.78,SW,221,6.0,15.0,41,0.00,,,0.00,weatherlink.com 1.10,2013-05-16 14:56:00,
2013-05-16 11:11:00,71.1,43.0,29.78,SW,232,13.0,20.0,37,0.00,,,0.00,weatherlink.com 1.10,2013-05-16 15:11:00,
2013-05-16 11:26:00,72.0,45.0,29.79,SW,231,8.0,14.0,38,0.00,,,0.00,weatherlink.com 1.10,2013-05-16 15:26:00,
2013-05-16 11:41:00,72.2,44.0,29.79,SW,222,13.0,16.0,36,0.00,,,0.00,weatherlink.com 1.10,2013-05-16 15:41:00,
2013-05-16 11:56:00,72.5,47.0,29.79,WNW,300,4.0,12.0,40,0.00,,,0.00,weatherlink.com 1.10,2013-05-16 15:56:00,
2013-05-16 12:11:00,73.1,45.0,29.79,West,278,2.0,13.0,36,0.00,,,0.00,weatherlink.com 1.10,2013-05-16 16:11:00,
2013-05-16 12:26:00,73.7,45.0,29.79,WNW,290,5.0,17.0,36,0.00,,,0.00,weatherlink.com 1.10,2013-05-16 16:26:00,
2013-05-16 12:41:00,73.8,45.0,29.78,NW,307,4.0,14.0,36,0.00,,,0.00,weatherlink.com 1.10,2013-05-16 16:41:00,
2013-05-16 12:56:00,74.1,45.0,29.78,NW,318,9.0,16.0,35,0.00,,,0.00,weatherlink.com 1.10,2013-05-16 16:56:00,
2013-05-16 13:11:00,74.3,45.0,29.79,West,280,6.0,15.0,35,0.00,,,0.00,weatherlink.com 1.10,2013-05-16 17:11:00,
2013-05-16 13:26:00,73.9,43.0,29.79,WNW,287,9.0,19.0,33,0.00,,,0.00,weatherlink.com 1.10,2013-05-16 17:26:00,
2013-05-16 13:41:00,73.5,43.0,29.79,NW,309,18.0,18.0,33,0.00,,,0.00,weatherlink.com 1.10,2013-05-16 17:41:00,
2013-05-16 13:56:00,73.9,44.0,29.79,NW,307,6.0,21.0,34,0.00,,,0.00,weatherlink.com 1.10,2013-05-16 17:56:00,
2013-05-16 14:11:00,73.9,42.0,29.79,NW,322,6.0,19.0,32,0.00,,,0.00,weatherlink.com 1.10,2013-05-16 18:11:00,
2013-05-16 14:26:00,73.7,41.0,29.79,West,280,7.0,19.0,31,0.00,,,0.00,weatherlink.com 1.10,2013-05-16 18:26:00,
2013-05-16 14:41:00,73.3,41.0,29.79,WNW,291,8.0,23.0,31,0.00,,,0.00,weatherlink.com 1.10,2013-05-16 18:41:00,
2013-05-16 14:56:00,74.0,41.0,29.79,West,278,8.0,17.0,31,0.00,,,0.00,weatherlink.com 1.10,2013-05-16 18:56:00,
2013-05-16 15:11:00,73.3,42.0,29.80,West,279,15.0,18.0,32,0.00,,,0.00,weatherlink.com 1.10,2013-05-16 19:11:00,
2013-05-16 15:26:00,73.4,42.0,29.80,WNW,300,7.0,18.0,32,0.00,,,0.00,weatherlink.com 1.10,2013-05-16 19:26:00,
2013-05-16 15:41:00,73.3,41.0,29.80,West,279,12.0,16.0,31,0.00,,,0.00,weatherlink.com 1.10,2013-05-16 19:41:00,
2013-05-16 15:56:00,73.1,41.0,29.81,WNW,289,6.0,20.0,31,0.00,,,0.00,weatherlink.com 1.10,2013-05-16 19:56:00,
2013-05-16 16:11:00,73.0,39.0,29.80,West,275,11.0,20.0,29,0.00,,,0.00,weatherlink.com 1.10,2013-05-16 20:11:00,
2013-05-16 16:26:00,72.9,38.0,29.81,WNW,300,9.0,19.0,28,0.00,,,0.00,weatherlink.com 1.10,2013-05-16 20:26:00,
2013-05-16 16:41:00,73.0,39.0,29.81,WNW,291,5.0,21.0,29,0.00,,,0.00,weatherlink.com 1.10,2013-05-16 20:41:00,
2013-05-16 16:56:00,72.8,38.0,29.81,NW,321,14.0,16.0,28,0.00,,,0.00,weatherlink.com 1.10,2013-05-16 20:56:00,
2013-05-16 17:11:00,72.5,38.0,29.81,WSW,244,9.0,17.0,28,0.00,,,0.00,weatherlink.com 1.10,2013-05-16 21:11:00,
2013-05-16 17:27:00,72.3,37.0,29.82,NNW,327,5.0,17.0,28,0.00,,,0.00,weatherlink.com 1.10,2013-05-16 21:27:00,
2013-05-16 17:42:00,71.8,36.0,29.83,West,266,5.0,18.0,27,0.00,,,0.00,weatherlink.com 1.10,2013-05-16 21:42:00,
2013-05-16 17:57:00,71.2,34.0,29.84,WNW,297,7.0,18.0,25,0.00,,,0.00,weatherlink.com 1.10,2013-05-16 21:57:00,
2013-05-16 18:12:00,70.6,33.0,29.84,NW,309,11.0,18.0,25,0.00,,,0.00,weatherlink.com 1.10,2013-05-16 22:12:00,
2013-05-16 18:27:00,70.1,32.0,29.85,WNW,297,6.0,18.0,24,0.00,,,0.00,weatherlink.com 1.10,2013-05-16 22:27:00,
2013-05-16 18:42:00,69.5,30.0,29.86,WNW,294,5.0,20.0,23,0.00,,,0.00,weatherlink.com 1.10,2013-05-16 22:42:00,
2013-05-16 18:57:00,68.8,31.0,29.87,West,276,8.0,19.0,25,0.00,,,0.00,weatherlink.com 1.10,2013-05-16 22:57:00,
2013-05-16 19:12:00,68.3,33.0,29.87,WNW,301,5.0,15.0,27,0.00,,,0.00,weatherlink.com 1.10,2013-05-16 23:12:00,
2013-05-16 19:27:00,67.4,35.0,29.89,NNW,340,10.0,16.0,30,0.00,,,0.00,weatherlink.com 1.10,2013-05-16 23:27:00,
2013-05-16 19:42:00,65.4,38.0,29.90,WNW,300,5.0,14.0,37,0.00,,,0.00,weatherlink.com 1.10,2013-05-16 23:42:00,
2013-05-16 19:57:00,63.7,41.0,29.91,NW,315,3.0,10.0,43,0.00,,,0.00,weatherlink.com 1.10,2013-05-16 23:57:00,
2013-05-16 20:12:00,62.4,42.0,29.91,NNW,337,2.0,7.0,47,0.00,,,0.00,weatherlink.com 1.10,2013-05-17 00:12:00,
2013-05-16 20:27:00,60.7,42.0,29.92,NE,36,1.0,8.0,50,0.00,,,0.00,weatherlink.com 1.10,2013-05-17 00:27:00,
2013-05-16 20:42:00,59.4,42.0,29.93,North,358,4.0,7.0,53,0.00,,,0.00,weatherlink.com 1.10,2013-05-17 00:42:00,
2013-05-16 20:58:00,58.0,42.0,29.94,NNW,330,5.0,7.0,55,0.00,,,0.00,weatherlink.com 1.10,2013-05-17 00:58:00,
2013-05-16 21:13:00,57.2,41.0,29.94,NNW,347,5.0,8.0,56,0.00,,,0.00,weatherlink.com 1.10,2013-05-17 01:13:00,
2013-05-16 21:28:00,56.3,41.0,29.95,NNW,343,3.0,6.0,58,0.00,,,0.00,weatherlink.com 1.10,2013-05-17 01:28:00,
2013-05-16 21:43:00,55.2,41.0,29.96,NNE,18,3.0,6.0,60,0.00,,,0.00,weatherlink.com 1.10,2013-05-17 01:43:00,
2013-05-16 21:58:00,54.5,42.0,29.97,NW,321,3.0,6.0,62,0.00,,,0.00,weatherlink.com 1.10,2013-05-17 01:58:00,
2013-05-16 22:13:00,53.9,41.0,29.97,NNW,338,4.0,7.0,62,0.00,,,0.00,weatherlink.com 1.10,2013-05-17 02:13:00,
2013-05-16 22:28:00,53.6,41.0,29.98,NW,323,5.0,8.0,63,0.00,,,0.00,weatherlink.com 1.10,2013-05-17 02:28:00,
2013-05-16 22:43:00,53.1,41.0,29.98,North,352,5.0,8.0,63,0.00,,,0.00,weatherlink.com 1.10,2013-05-17 02:43:00,
2013-05-16 22:58:00,53.0,41.0,29.99,NNW,337,8.0,10.0,63,0.00,,,0.00,weatherlink.com 1.10,2013-05-17 02:58:00,
2013-05-16 23:13:00,53.2,40.0,29.99,NE,51,7.0,10.0,62,0.00,,,0.00,weatherlink.com 1.10,2013-05-17 03:13:00,
2013-05-16 23:28:00,53.1,40.0,30.00,North,360,11.0,11.0,61,0.00,,,0.00,weatherlink.com 1.10,2013-05-17 03:28:00,
2013-05-16 23:43:00,52.9,40.0,30.00,NNW,347,7.0,10.0,62,0.00,,,0.00,weatherlink.com 1.10,2013-05-17 03:43:00,
2013-05-16 23:58:00,52.3,40.0,30.00,NNW,335,8.0,10.0,63,0.00,,,0.00,weatherlink.com 1.10,2013-05-17 03:58:00,